Location: Unspecified
(0.0000°N, 0.0000°E)
Time: 00:24:05
(UTC+00:00)

STARLINK-1265 - Pass Details

Date: 22 May 2026
Orbit: 448 x 454 km, 53.2° (Epoch: 10 June)

Event Time Altitude Azimuth Distance (km) Brightness Sun altitude
Rises 04:48:45 0° 354° (N) 2,463 7.1 -15.9°
Reaches altitude 10° 04:51:31 10° 17° (NNE) 1,596 6.5 -15.2°
Maximum altitude 04:53:46 16° 56° (NE) 1,293 6.6 -14.7°
Drops below altitude 10° 04:56:00 10° 94° (E) 1,605 7.1 -14.2°
Sets 04:58:48 0° 117° (ESE) 2,484 7.6 -13.5°
